317  
ASUS41 KGYX 211210  
RWRGYX  
WEATHER ROUNDUP FOR MAINE AND NEW HAMPSHIRE  
NATIONAL WEATHER SERVICE GRAY ME  
800 AM EDT MON OCT 21 2019  
 
MEZ002-005-006-010-012-015-018-020-021-024-026-027-029-211300-  
MAINE  
 
CITY SKY/WX TMP DP RH WIND PRES REMARKS
 
PORTLAND FOG 47 44 90 N3 30.14R VSB 1  
6HR MIN TEMP: 45; 6HR MAX TEMP: 50;  
 
SANFORD LGT RAIN 45 45 100 N3 30.14R VSB 1/4  
BAR HARBOR FAIR 43 42 97 N6 30.15R  
WISCASSET FOG 47 45 93 CALM 30.15R VSB 1/4  
6HR MIN TEMP: 46; 6HR MAX TEMP: 47;  
 
ROCKLAND FAIR 48 48 100 CALM 30.14R FOG  
FRYEBURG FOG 38 37 97 CALM 30.14R VSB 1/4  
6HR MIN TEMP: 35; 6HR MAX TEMP: 46;  
 
LEWISTONAUBURN FAIR 43 43 100 CALM 30.14R FOG  
AUGUSTA FOG 44 44 100 CALM 30.14R VSB<1/4  
6HR MIN TEMP: 43; 6HR MAX TEMP: 47;  
 
WATERVILLE MOCLDY 42 42 100 CALM 30.11R  
BANGOR FAIR 42 41 96 CALM 30.14R  
6HR MIN TEMP: 38; 6HR MAX TEMP: 47;  
 
GREENVILLE N/A 41 38 89 CALM 30.09R  
6HR MIN TEMP: 37; 6HR MAX TEMP: 44;  
 
MILLINOCKET FAIR 39 36 89 CALM 30.14R  
6HR MIN TEMP: 36; 6HR MAX TEMP: 45;  
 
HOULTON FAIR 36 35 96 CALM 30.11R  
6HR MIN TEMP: 34; 6HR MAX TEMP: 46; 6HR PCP: TRACE;  
 
PRESQUE ISLE MOCLDY 36 35 96 CALM 30.12R  
6HR MIN TEMP: 35; 6HR MAX TEMP: 43;  
 
FRENCHVILLE FAIR 39 35 86 CALM 30.09R  
6HR MIN TEMP: 38; 6HR MAX TEMP: 43;  
 
CARIBOU FAIR 41 37 86 CALM 30.10R  
6HR MIN TEMP: 39; 6HR MAX TEMP: 43;  
 

 
 
NHZ002-005-008-009-011-012-014-211300-  
NEW HAMPSHIRE  
 
CITY SKY/WX TMP DP RH WIND PRES REMARKS
 
PORTSMOUTH PTCLDY 47 45 93 CALM 30.11R  
ROCHESTER FOG 44 42 93 NW7 30.13R VSB 1/2  
6HR MIN TEMP: 41; 6HR MAX TEMP: 49;  
 
NASHUA FOG 47 47 100 NW6 30.13R VSB 1  
MANCHESTER FOG 48 47 96 N6 30.11R VSB 3/4  
6HR MIN TEMP: 48; 6HR MAX TEMP: 51;  
 
CONCORD FOG 44 43 96 N3 30.13R VSB<1/4  
6HR MIN TEMP: 44; 6HR MAX TEMP: 48;  
 
LACONIA FOG 45 45 100 CALM 30.14R VSB 1/4  
PLYMOUTH CLOUDY 42 41 99 NW5 30.14R FOG  
BERLIN FOG 37 35 92 CALM 30.15R VSB 1/4  
6HR MIN TEMP: 37; 6HR MAX TEMP: 41;  
 
WHITEFIELD FOG 32 32 100 CALM 30.15R VSB<1/4  
6HR MIN TEMP: 32; 6HR MAX TEMP: 35;  
 
JAFFREY FOG 44 42 93 CALM 30.11R VSB 1/4  
6HR MIN TEMP: 44; 6HR MAX TEMP: 48;  
 
KEENE FOG 41 41 100 CALM 30.13R VSB 1/4  
LEBANON FOG 44 41 89 N6 30.13R VSB 1/2  
6HR MIN TEMP: 44; 6HR MAX TEMP: 46;  
 
MT WASHINGTON PTCLDY 37 21 52 NW14 N/A  
6HR MIN TEMP: 36; 6HR MAX TEMP: 38;  
 

 
 
VTZ005-007-008-211300-  
VERMONT  
 
CITY SKY/WX TMP DP RH WIND PRES REMARKS
 
ST JOHNSBURY N/A 38 38 100 MISG 30.14R  
MONTPELIER FOG 39 39 100 CALM 30.17R VSB<1/4  
BURLINGTON FOG 38 37 97 CALM 30.14R VSB 1/2  

 
 
MAZ007-012-024-CTZ003-RIZ002-NYZ038-NYZ072-211300-  
SOUTHERN NEW ENGLAND AND NY  
 
CITY SKY/WX TMP DP RH WIND PRES REMARKS
 
BOSTON FAIR 54 49 83 N8 30.10R  
WORCESTER FOG 47 47 100 NE7 30.09R VSB 1/4  
NANTUCKET LGT RAIN 54 52 93 NE20G29 30.01R FOG  
PROVIDENCE CLOUDY 53 50 89 N9 30.07R  
HARTFORD FAIR 48 44 86 N9 30.08S  
ALBANY DRZL/FOG 47 45 93 N6 30.12R VSB 1/2  
NEW YORK CITY FAIR 53 45 74 N7 30.04R  

 
 
ANZ081-ANZ082-ANZ150-NHZ014-MEZ023>029-211300-  
COASTAL MARINE OBSERVATIONS  
 
STATION/POSITION TIME TEMP WIND PRES WAVE
 
AIR SEA DIR/SP/G HT/PER  
(UTC) (F) (DEG/KT/KT) (MB) (FT/S)  
MOUNT DESERT ROC 1200 140/ 3/ 4 1020.3R  
ISLE OF SHOALS 1100 52 30/ 9/ 11 1018.5R  
JEFFREYS LEDGE 1138 55 N/A 2/11  
CASHES LEDGE BUO 1150 54 55 50/ 6/ 8 1020.1R 1/10  
GEORGES BANK BUO 1150 58 1017.3R 3/ 9  

 
   
............KEY...........
 
 
WCI - WIND CHILL  
TC - TEMPERATURE IN CELSIUS  
VSB - VISIBILITY
IN MILES  
HX - HEAT INDEX  
FAIR- INDICATES FEW OR NO CLOUDS BELOW 12,000 FT, WITH NO  
SIGNIFICANT WEATHER AND/OR S TO VISIBILITY.  
 
 
 
CLICK HERE TO GO TO PREVIOUS BULLETINS.

The Nexlab ME Page
The Nexlab NH Page Main Text Page